Flag for U.S.A. Weather past 2 weeks in Garland, Texas, U.S.A.

Now
86 °F

Scattered clouds.


Feels Like: 87 °F
Forecast: 71 / 88 °F
Wind: 8 mph from Southeast

Location: Mesquite Metro Airport

Current Time: Sep 19, 2014 at 8:04:08 PM

Latest Report: Sep 19, 2014 at 6:50 PM


Visibility: 10 mi

Pressure: 29.90 "Hg

Humidity: 49%

Dew point: 64 °F

Location of GarlandLocation

Historic Weather in Garland — Graph

°F

Garland temperature yesterday

Maximum temperature yesterday: 88 °F (at 3:50 PM)
Minimum temperature yesterday: 70 °F (at 11:55 PM)
Average temperature yesterday: 76 °F

Past Weeks' High & Low Weather Summary

 TemperatureHumidityPressure
High99 °F (Sep 10, 2:55 PM)100% (Sep 8, 6:50 AM)30.29 "Hg (Sep 8, 6:50 AM)
Low57 °F (Sep 13, 6:47 AM)28% (Sep 5, 5:47 PM)29.75 "Hg (Sep 10, 5:55 PM)
Average76 °F75%30.02 "Hg
* Reported Sep 4 7:50 PM — Sep 19 6:50 PM, Garland, Weather by CustomWeather, © 2014

Note: Actual official high and low records may vary slightly from our data, if they occured in-between our weather recording intervals... More about our weather records

Advertising

Garland weather history for previous 24 hours

 ConditionsComfort  
Time TempWeatherWind HumidityBarometerVisibility
6:50 PM
Sep 19
86 °FScattered clouds.8 mph49%29.90 "Hg10 mi
5:50 PM88 °FScattered clouds.8 mph46%29.90 "Hg10 mi
4:50 PM88 °FScattered clouds.6 mph46%29.90 "Hg10 mi
3:50 PM86 °FBroken clouds.8 mph49%29.91 "Hg10 mi
2:50 PM88 °FBroken clouds.10 mph49%29.93 "Hg10 mi
1:50 PM84 °FMostly cloudy.6 mph55%29.95 "Hg10 mi
12:50 PM82 °FPartly sunny.7 mph62%29.97 "Hg10 mi
11:50 AM81 °FOvercast.6 mph66%29.98 "Hg10 mi
10:50 AM79 °FPartly sunny.6 mph74%29.99 "Hg10 mi
9:55 AM73 °FLow clouds.7 mph89%29.98 "Hg10 mi
8:50 AM72 °FLow clouds.No wind94%29.96 "Hg7 mi
7:50 AM70 °FFog.No wind94%29.95 "Hg4 mi
6:50 AM68 °FLow clouds.No wind94%29.94 "Hg7 mi
5:35 AM67 °FPassing clouds.No wind96%29.94 "Hg10 mi
5:15 AM67 °FPassing clouds.No wind96%29.94 "Hg10 mi
4:55 AM67 °FPassing clouds.No wind96%29.94 "Hg10 mi
4:35 AM67 °FClear.No wind96%29.93 "Hg10 mi
3:55 AM66 °FClear.No wind94%29.93 "Hg10 mi
3:35 AM67 °FClear.3 mph92%29.93 "Hg10 mi
3:15 AM66 °FClear.No wind94%29.93 "Hg10 mi
2:55 AM67 °FClear.3 mph92%29.93 "Hg10 mi
2:35 AM67 °FClear.3 mph92%29.93 "Hg10 mi
2:15 AM68 °FClear.3 mph89%29.93 "Hg10 mi
1:55 AM67 °FClear.No wind90%29.92 "Hg10 mi
1:35 AM68 °FClear.No wind88%29.93 "Hg10 mi
12:55 AM69 °FClear.No wind85%29.93 "Hg10 mi
12:35 AM70 °FClear.No wind84%29.94 "Hg10 mi
12:15 AM69 °FClear.No wind85%29.94 "Hg10 mi
11:55 PM
Sep 18
70 °FClear.No wind83%29.94 "Hg10 mi
11:35 PM70 °FClear.No wind82%29.94 "Hg10 mi
11:15 PM70 °FClear.3 mph82%29.94 "Hg10 mi
10:55 PM71 °FClear.5 mph80%29.94 "Hg10 mi
10:15 PM72 °FClear.3 mph76%29.94 "Hg10 mi
9:55 PM73 °FClear.5 mph73%29.94 "Hg10 mi
Weather by CustomWeather, © 2014

See weather overviewHow to use our weather pages